Hourly Weather Megri

Today, 11 August, Tuesday

Time Temperature Precipitation Wind Pressure Humidity
00:00 +18°C° 0 mm 3 mps 620 mmHg 77%
01:00 +18°C° 0 mm 3 mps 620 mmHg 77%
02:00 +17°C° 0 mm 3 mps 620 mmHg 76%
03:00 +17°C° 0 mm 3 mps 619 mmHg 76%
04:00 +17°C° 0 mm 3 mps 620 mmHg 74%
05:00 +17°C° 0 mm 3 mps 620 mmHg 72%
06:00 +17°C° 0 mm 3 mps 621 mmHg 70%
07:00 +19°C° 0 mm 3 mps 621 mmHg 65%
08:00 +20°C° 0 mm 3 mps 621 mmHg 60%
09:00 +22°C° 0 mm 3 mps 621 mmHg 55%
10:00 +24°C° 0 mm 3 mps 622 mmHg 51%
11:00 +25°C° 0 mm 3 mps 622 mmHg 47%
12:00 +27°C° 0 mm 3 mps 622 mmHg 43%
13:00 +27°C° 0 mm 3 mps 622 mmHg 40%
14:00 +28°C° 0 mm 3 mps 622 mmHg 37%
15:00 +29°C° 0 mm 3 mps 622 mmHg 34%
16:00 +28°C° 0 mm 3 mps 621 mmHg 39%
17:00 +26°C° 0 mm 4 mps 621 mmHg 45%
18:00 +25°C° 0 mm 4 mps 620 mmHg 51%
19:00 +22°C° 0 mm 4 mps 620 mmHg 59%
20:00 +20°C° 0 mm 4 mps 620 mmHg 66%
21:00 +18°C° 0 mm 4 mps 620 mmHg 74%
22:00 +18°C° 0 mm 4 mps 620 mmHg 73%
23:00 +17°C° 0 mm 4 mps 620 mmHg 73%

Tomorrow, 12 August, Wednesday

Time Temperature Precipitation Wind Pressure Humidity
00:00 +17°C° 0 mm 4 mps 620 mmHg 72%
01:00 +16°C° 0 mm 3 mps 620 mmHg 72%
02:00 +16°C° 0 mm 3 mps 620 mmHg 72%
03:00 +16°C° 0 mm 3 mps 620 mmHg 72%
04:00 +16°C° 0 mm 3 mps 620 mmHg 71%
05:00 +16°C° 0 mm 3 mps 620 mmHg 69%
06:00 +16°C° 0 mm 3 mps 621 mmHg 68%
07:00 +18°C° 0 mm 3 mps 621 mmHg 61%
08:00 +19°C° 0 mm 3 mps 622 mmHg 55%
09:00 +21°C° 0 mm 3 mps 623 mmHg 48%
10:00 +22°C° 0 mm 3 mps 623 mmHg 44%
11:00 +25°C° 0 mm 3 mps 623 mmHg 40%
12:00 +26°C° 0 mm 3 mps 623 mmHg 36%
13:00 +27°C° 0 mm 3 mps 623 mmHg 35%
14:00 +27°C° 0 mm 3 mps 623 mmHg 33%
15:00 +28°C° 0 mm 3 mps 623 mmHg 31%
16:00 +27°C° 0 mm 4 mps 623 mmHg 34%
17:00 +26°C° 0 mm 4 mps 622 mmHg 36%
18:00 +25°C° 0 mm 4 mps 622 mmHg 39%
19:00 +22°C° 0 mm 4 mps 622 mmHg 41%
20:00 +21°C° 0 mm 4 mps 622 mmHg 43%
21:00 +19°C° 0 mm 4 mps 622 mmHg 46%
22:00 +19°C° 0 mm 4 mps 622 mmHg 48%
23:00 +18°C° 0 mm 3 mps 621 mmHg 50%

Day after tomorrow, 13 August, Thursday

Time Temperature Precipitation Wind Pressure Humidity
00:00 +17°C° 0 mm 3 mps 621 mmHg 52%
01:00 +17°C° 0 mm 3 mps 621 mmHg 54%
02:00 +17°C° 0 mm 3 mps 621 mmHg 56%
03:00 +16°C° 0 mm 3 mps 621 mmHg 58%
04:00 +17°C° 0 mm 3 mps 621 mmHg 58%
05:00 +17°C° 0 mm 3 mps 621 mmHg 59%
06:00 +17°C° 0 mm 3 mps 621 mmHg 59%
07:00 +19°C° 0 mm 2 mps 622 mmHg 53%
08:00 +20°C° 0 mm 2 mps 622 mmHg 46%
09:00 +23°C° 0 mm 2 mps 623 mmHg 40%
10:00 +25°C° 0 mm 2 mps 623 mmHg 37%
11:00 +26°C° 0 mm 3 mps 623 mmHg 34%
12:00 +28°C° 0 mm 3 mps 623 mmHg 31%
13:00 +28°C° 0 mm 3 mps 623 mmHg 30%
14:00 +28°C° 0 mm 3 mps 622 mmHg 29%
15:00 +29°C° 0 mm 4 mps 622 mmHg 28%
16:00 +28°C° 0 mm 4 mps 621 mmHg 31%
17:00 +27°C° 0 mm 4 mps 621 mmHg 33%
18:00 +26°C° 0 mm 5 mps 621 mmHg 36%
19:00 +23°C° 0 mm 4 mps 621 mmHg 40%
20:00 +21°C° 0 mm 4 mps 620 mmHg 44%
21:00 +20°C° 0 mm 4 mps 620 mmHg 48%
22:00 +19°C° 0 mm 4 mps 620 mmHg 50%
23:00 +18°C° 0 mm 4 mps 620 mmHg 53%

14 August, Friday

Time Temperature Precipitation Wind Pressure Humidity
00:00 +18°C° 0 mm 4 mps 620 mmHg 55%
01:00 +17°C° 0 mm 4 mps 620 mmHg 57%
02:00 +17°C° 0 mm 3 mps 620 mmHg 59%
03:00 +16°C° 0 mm 3 mps 619 mmHg 61%
04:00 +16°C° 0 mm 3 mps 619 mmHg 61%
05:00 +16°C° 0 mm 3 mps 620 mmHg 61%
06:00 +16°C° 0 mm 3 mps 620 mmHg 61%
07:00 +18°C° 0 mm 3 mps 620 mmHg 54%
08:00 +20°C° 0 mm 3 mps 621 mmHg 47%
09:00 +21°C° 0 mm 3 mps 621 mmHg 40%
10:00 +24°C° 0 mm 3 mps 622 mmHg 37%
11:00 +25°C° 0 mm 3 mps 622 mmHg 33%
12:00 +27°C° 0 mm 3 mps 622 mmHg 29%
13:00 +27°C° 0 mm 3 mps 622 mmHg 29%
14:00 +28°C° 0 mm 4 mps 621 mmHg 28%
15:00 +28°C° 0 mm 4 mps 621 mmHg 28%
16:00 +27°C° 0 mm 4 mps 620 mmHg 31%
17:00 +26°C° 0 mm 5 mps 620 mmHg 34%
18:00 +25°C° 0 mm 5 mps 619 mmHg 37%
19:00 +22°C° 0 mm 5 mps 619 mmHg 41%
20:00 +21°C° 0 mm 4 mps 619 mmHg 45%
21:00 +19°C° 0 mm 4 mps 619 mmHg 49%
22:00 +19°C° 0 mm 4 mps 619 mmHg 53%
23:00 +18°C° 0 mm 4 mps 619 mmHg 56%

15 August, Saturday

Time Temperature Precipitation Wind Pressure Humidity
00:00 +17°C° 0 mm 4 mps 619 mmHg 60%
01:00 +17°C° 0 mm 3 mps 619 mmHg 62%
02:00 +16°C° 0 mm 3 mps 619 mmHg 65%
03:00 +16°C° 0 mm 3 mps 619 mmHg 68%
04:00 +16°C° 0 mm 3 mps 619 mmHg 69%
05:00 +16°C° 0 mm 3 mps 619 mmHg 71%
06:00 +14°C° 0 mm 3 mps 619 mmHg 73%
07:00 +17°C° 0 mm 3 mps 620 mmHg 66%
08:00 +18°C° 0 mm 3 mps 620 mmHg 59%
09:00 +20°C° 0 mm 3 mps 621 mmHg 52%
10:00 +21°C° 0 mm 4 mps 621 mmHg 49%
11:00 +22°C° 0 mm 4 mps 621 mmHg 46%
12:00 +23°C° 0 mm 4 mps 622 mmHg 44%
13:00 +23°C° 0 mm 5 mps 621 mmHg 46%
14:00 +23°C° 0 mm 5 mps 621 mmHg 48%
15:00 +22°C° 0 mm 5 mps 621 mmHg 50%
16:00 +21°C° 0 mm 5 mps 620 mmHg 54%
17:00 +20°C° 0 mm 5 mps 620 mmHg 59%
18:00 +19°C° 0 mm 5 mps 620 mmHg 63%
19:00 +18°C° 0 mm 4 mps 620 mmHg 66%
20:00 +17°C° 0 mm 4 mps 620 mmHg 70%
21:00 +15°C° 0 mm 4 mps 620 mmHg 73%
22:00 +15°C° 0 mm 4 mps 620 mmHg 75%
23:00 +14°C° 0 mm 4 mps 620 mmHg 77%

16 August, Sunday

Time Temperature Precipitation Wind Pressure Humidity
00:00 +14°C° 0 mm 3 mps 620 mmHg 80%
01:00 +13°C° 0 mm 3 mps 620 mmHg 81%
02:00 +13°C° 0 mm 3 mps 620 mmHg 82%
03:00 +13°C° 0 mm 3 mps 620 mmHg 84%
04:00 +13°C° 0 mm 3 mps 620 mmHg 83%
05:00 +13°C° 0 mm 3 mps 620 mmHg 83%
06:00 +13°C° 0 mm 3 mps 620 mmHg 82%
07:00 +14°C° 0 mm 3 mps 621 mmHg 75%
08:00 +17°C° 0 mm 3 mps 621 mmHg 67%
09:00 +19°C° 0 mm 3 mps 622 mmHg 60%
10:00 +20°C° 0 mm 3 mps 622 mmHg 56%
11:00 +21°C° 0 mm 3 mps 622 mmHg 51%
12:00 +24°C° 0 mm 3 mps 622 mmHg 47%
13:00 +23°C° 0 mm 4 mps 622 mmHg 47%
14:00 +23°C° 0 mm 4 mps 622 mmHg 46%
15:00 +25°C° 0 mm 4 mps 622 mmHg 46%
16:00 +23°C° 0 mm 4 mps 621 mmHg 52%
17:00 +21°C° 0 mm 4 mps 620 mmHg 57%
18:00 +20°C° 0 mm 4 mps 620 mmHg 63%
19:00 +19°C° 0 mm 4 mps 620 mmHg 68%
20:00 +18°C° 0 mm 4 mps 620 mmHg 73%
21:00 +17°C° 0 mm 4 mps 620 mmHg 77%
22:00 +15°C° 0 mm 4 mps 620 mmHg 78%
23:00 +15°C° 0 mm 4 mps 619 mmHg 78%
Show more